Time,TemperatureF,DewpointF,PressureIn,WindDirection,WindDirectionDegrees,WindSpeedMPH,WindSpeedGustMPH,Humidity,HourlyPrecipIn,Conditions,Clouds,dailyrainin,SoftwareType,DateUTC
2013-05-25 00:01:00,53.1,40.4,30.20,NNE,26,0.0,0.0,62,0.00,CLR,,0.00,WeatherDisplay:10.37,2013-05-25 04:01:00,
2013-05-25 00:06:00,52.8,41.4,30.20,NNE,26,0.0,0.0,65,0.00,CLR,,0.00,WeatherDisplay:10.37,2013-05-25 04:06:00,
2013-05-25 00:11:00,52.3,40.5,30.20,NNE,26,0.0,0.0,64,0.00,CLR,,0.00,WeatherDisplay:10.37,2013-05-25 04:11:00,
2013-05-25 00:16:00,53.5,40.4,30.20,NNE,26,0.0,0.0,61,0.00,CLR,,0.00,WeatherDisplay:10.37,2013-05-25 04:16:00,
2013-05-25 00:21:00,51.9,39.3,30.21,NNE,27,0.0,0.0,62,0.00,CLR,,0.00,WeatherDisplay:10.37,2013-05-25 04:21:00,
2013-05-25 00:26:00,53.5,40.4,30.20,NNE,26,0.0,0.0,61,0.00,CLR,,0.00,WeatherDisplay:10.37,2013-05-25 04:26:00,
2013-05-25 00:31:00,51.9,39.7,30.21,NNE,27,0.0,0.0,63,0.00,CLR,,0.00,WeatherDisplay:10.37,2013-05-25 04:31:00,
2013-05-25 00:36:00,52.1,39.9,30.20,NNE,27,0.0,0.0,63,0.00,CLR,,0.00,WeatherDisplay:10.37,2013-05-25 04:36:00,
2013-05-25 00:41:00,52.1,40.7,30.21,NNE,27,0.0,0.0,65,0.00,CLR,,0.00,WeatherDisplay:10.37,2013-05-25 04:41:00,
2013-05-25 00:46:00,52.1,41.1,30.21,NNE,26,0.0,0.0,66,0.00,CLR,,0.00,WeatherDisplay:10.37,2013-05-25 04:46:00,
2013-05-25 00:51:00,53.5,40.4,30.20,NNE,26,0.0,0.0,61,0.00,CLR,,0.00,WeatherDisplay:10.37,2013-05-25 04:51:00,
2013-05-25 00:56:00,53.5,40.4,30.20,NNE,26,0.0,0.0,61,0.00,CLR,,0.00,WeatherDisplay:10.37,2013-05-25 04:56:00,
2013-05-25 01:01:00,51.1,40.5,30.21,NNE,27,0.0,0.0,67,0.00,CLR,,0.00,WeatherDisplay:10.37,2013-05-25 05:01:00,
2013-05-25 01:06:00,50.7,40.1,30.22,West,270,2.3,2.3,67,0.00,CLR,,0.00,WeatherDisplay:10.37,2013-05-25 05:06:00,
2013-05-25 01:11:00,50.6,40.0,30.21,West,270,1.2,1.2,67,0.00,CLR,,0.00,WeatherDisplay:10.37,2013-05-25 05:11:00,
2013-05-25 01:16:00,50.1,39.9,30.21,West,270,0.0,0.0,68,0.00,CLR,,0.00,WeatherDisplay:10.37,2013-05-25 05:16:00,
2013-05-25 01:21:00,49.9,39.8,30.21,West,269,0.0,0.0,68,0.00,CLR,,0.00,WeatherDisplay:10.37,2013-05-25 05:21:00,
2013-05-25 01:26:00,50.6,40.0,30.21,West,270,1.2,1.2,67,0.00,CLR,,0.00,WeatherDisplay:10.37,2013-05-25 05:26:00,
2013-05-25 01:31:00,50.6,40.0,30.21,West,270,1.2,1.2,67,0.00,CLR,,0.00,WeatherDisplay:10.37,2013-05-25 05:31:00,
2013-05-25 01:36:00,49.7,41.4,30.21,West,269,0.0,0.0,73,0.00,CLR,,0.00,WeatherDisplay:10.37,2013-05-25 05:36:00,
2013-05-25 01:41:00,49.5,41.6,30.21,SE,128,0.0,0.0,74,0.00,CLR,,0.00,WeatherDisplay:10.37,2013-05-25 05:41:00,
2013-05-25 01:46:00,49.2,40.9,30.21,SE,128,0.0,0.0,73,0.00,CLR,,0.00,WeatherDisplay:10.37,2013-05-25 05:46:00,
2013-05-25 01:51:00,49.1,39.7,30.21,SE,128,0.0,0.0,70,0.00,CLR,,0.00,WeatherDisplay:10.37,2013-05-25 05:51:00,
2013-05-25 01:56:00,49.0,39.3,30.21,SE,128,0.0,0.0,69,0.00,CLR,,0.00,WeatherDisplay:10.37,2013-05-25 05:56:00,
2013-05-25 02:01:00,48.9,40.6,30.21,SE,128,0.0,0.0,73,0.00,CLR,,0.00,WeatherDisplay:10.37,2013-05-25 06:01:00,
2013-05-25 02:06:00,48.7,40.4,30.21,SE,128,0.0,0.0,73,0.00,CLR,,0.00,WeatherDisplay:10.37,2013-05-25 06:06:00,
2013-05-25 02:11:00,48.4,40.5,30.21,SE,128,0.0,0.0,74,0.00,CLR,,0.00,WeatherDisplay:10.37,2013-05-25 06:11:00,
2013-05-25 02:16:00,50.6,40.0,30.21,West,270,1.2,1.2,67,0.00,CLR,,0.00,WeatherDisplay:10.37,2013-05-25 06:16:00,
2013-05-25 02:21:00,50.6,40.0,30.21,West,270,1.2,1.2,67,0.00,CLR,,0.00,WeatherDisplay:10.37,2013-05-25 06:21:00,
2013-05-25 02:26:00,50.6,40.0,30.21,West,270,1.2,1.2,67,0.00,CLR,,0.00,WeatherDisplay:10.37,2013-05-25 06:26:00,
2013-05-25 02:31:00,48.0,40.1,30.21,SE,128,0.0,0.0,74,0.00,CLR,,0.00,WeatherDisplay:10.37,2013-05-25 06:31:00,
2013-05-25 02:36:00,50.6,40.0,30.21,West,270,1.2,1.2,67,0.00,CLR,,0.00,WeatherDisplay:10.37,2013-05-25 06:36:00,
2013-05-25 02:41:00,50.6,40.0,30.21,West,270,1.2,1.2,67,0.00,CLR,,0.00,WeatherDisplay:10.37,2013-05-25 06:41:00,
2013-05-25 02:46:00,48.0,40.1,30.22,SW,220,0.0,0.0,74,0.00,CLR,,0.00,WeatherDisplay:10.37,2013-05-25 06:46:00,
2013-05-25 02:51:00,48.0,40.5,30.22,SW,219,0.0,0.0,75,0.00,CLR,,0.00,WeatherDisplay:10.37,2013-05-25 06:51:00,
2013-05-25 02:56:00,47.9,40.0,30.22,SW,219,0.0,0.0,74,0.00,CLR,,0.00,WeatherDisplay:10.37,2013-05-25 06:56:00,
2013-05-25 03:01:00,50.6,40.0,30.21,West,270,1.2,1.2,67,0.00,CLR,,0.00,WeatherDisplay:10.37,2013-05-25 07:01:00,
2013-05-25 03:06:00,47.6,40.1,30.22,SW,220,0.0,0.0,75,0.00,CLR,,0.00,WeatherDisplay:10.37,2013-05-25 07:06:00,
2013-05-25 03:11:00,47.5,40.3,30.22,SW,220,0.0,0.0,76,0.00,CLR,,0.00,WeatherDisplay:10.37,2013-05-25 07:11:00,
2013-05-25 03:16:00,50.6,40.0,30.21,West,270,1.2,1.2,67,0.00,CLR,,0.00,WeatherDisplay:10.37,2013-05-25 07:16:00,
2013-05-25 03:21:00,50.6,40.0,30.21,West,270,1.2,1.2,67,0.00,CLR,,0.00,WeatherDisplay:10.37,2013-05-25 07:21:00,
2013-05-25 03:26:00,47.2,39.7,30.21,SW,220,0.0,0.0,75,0.00,CLR,,0.00,WeatherDisplay:10.37,2013-05-25 07:26:00,
2013-05-25 03:31:00,47.2,40.4,30.21,SW,219,0.0,0.0,77,0.00,CLR,,0.00,WeatherDisplay:10.37,2013-05-25 07:31:00,
2013-05-25 03:36:00,47.1,40.6,30.21,SW,220,0.0,0.0,78,0.00,CLR,,0.00,WeatherDisplay:10.37,2013-05-25 07:36:00,
2013-05-25 03:41:00,47.0,39.8,30.21,SW,220,0.0,0.0,76,0.00,CLR,,0.00,WeatherDisplay:10.37,2013-05-25 07:41:00,
2013-05-25 03:46:00,47.2,39.7,30.21,SW,220,0.0,0.0,75,0.00,CLR,,0.00,WeatherDisplay:10.37,2013-05-25 07:46:00,
2013-05-25 03:51:00,47.2,39.7,30.21,SW,220,0.0,0.0,75,0.00,CLR,,0.00,WeatherDisplay:10.37,2013-05-25 07:51:00,
2013-05-25 03:56:00,46.9,39.7,30.21,SW,220,0.0,0.0,76,0.00,CLR,,0.00,WeatherDisplay:10.37,2013-05-25 07:56:00,
2013-05-25 04:01:00,46.8,39.6,30.21,SW,220,0.0,0.0,76,0.00,CLR,,0.00,WeatherDisplay:10.37,2013-05-25 08:01:00,
2013-05-25 04:06:00,46.8,40.0,30.21,SW,220,0.0,0.0,77,0.00,CLR,,0.00,WeatherDisplay:10.37,2013-05-25 08:06:00,
2013-05-25 04:11:00,47.0,39.8,30.21,SW,219,0.0,0.0,76,0.00,CLR,,0.00,WeatherDisplay:10.37,2013-05-25 08:11:00,
2013-05-25 04:16:00,47.0,39.8,30.21,SW,219,0.0,0.0,76,0.00,CLR,,0.00,WeatherDisplay:10.37,2013-05-25 08:16:00,
2013-05-25 04:21:00,47.0,39.8,30.21,SW,219,0.0,0.0,76,0.00,CLR,,0.00,WeatherDisplay:10.37,2013-05-25 08:21:00,
2013-05-25 04:26:00,46.6,39.8,30.21,SW,220,0.0,0.0,77,0.00,CLR,,0.00,WeatherDisplay:10.37,2013-05-25 08:26:00,
2013-05-25 04:31:00,47.0,39.8,30.21,SW,219,0.0,0.0,76,0.00,CLR,,0.00,WeatherDisplay:10.37,2013-05-25 08:31:00,
2013-05-25 04:36:00,47.0,39.8,30.21,SW,219,0.0,0.0,76,0.00,CLR,,0.00,WeatherDisplay:10.37,2013-05-25 08:36:00,
2013-05-25 04:41:00,47.0,39.8,30.21,SW,219,0.0,0.0,76,0.00,CLR,,0.00,WeatherDisplay:10.37,2013-05-25 08:41:00,
2013-05-25 04:46:00,46.5,39.7,30.22,SW,220,0.0,0.0,77,0.00,CLR,,0.00,WeatherDisplay:10.37,2013-05-25 08:46:00,
2013-05-25 04:51:00,46.5,39.7,30.22,SW,220,0.0,0.0,77,0.00,CLR,,0.00,WeatherDisplay:10.37,2013-05-25 08:51:00,
2013-05-25 04:56:00,46.5,39.7,30.22,SW,220,0.0,0.0,77,0.00,CLR,,0.00,WeatherDisplay:10.37,2013-05-25 08:56:00,
2013-05-25 05:01:00,46.5,39.7,30.22,SW,220,0.0,0.0,77,0.00,CLR,,0.00,WeatherDisplay:10.37,2013-05-25 09:01:00,
2013-05-25 05:06:00,46.5,40.0,30.21,SW,220,0.0,0.0,78,0.00,CLR,,0.00,WeatherDisplay:10.37,2013-05-25 09:06:00,
2013-05-25 05:11:00,46.4,40.2,30.21,SW,219,0.0,0.0,79,0.00,CLR,,0.00,WeatherDisplay:10.37,2013-05-25 09:11:00,
2013-05-25 05:16:00,46.5,39.7,30.21,SW,219,0.0,0.0,77,0.00,CLR,,0.00,WeatherDisplay:10.37,2013-05-25 09:16:00,
2013-05-25 05:21:00,46.5,39.7,30.21,SW,219,0.0,0.0,77,0.00,CLR,,0.00,WeatherDisplay:10.37,2013-05-25 09:21:00,
2013-05-25 05:26:00,46.0,40.2,30.21,SW,220,0.0,0.0,80,0.00,CLR,,0.00,WeatherDisplay:10.37,2013-05-25 09:26:00,
2013-05-25 05:31:00,45.9,40.4,30.22,SW,219,0.0,0.0,81,0.00,CLR,,0.00,WeatherDisplay:10.37,2013-05-25 09:31:00,
2013-05-25 05:36:00,45.8,40.3,30.22,SW,220,0.0,0.0,81,0.00,CLR,,0.00,WeatherDisplay:10.37,2013-05-25 09:36:00,
2013-05-25 05:41:00,45.7,39.9,30.22,SW,220,0.0,0.0,80,0.00,CLR,,0.00,WeatherDisplay:10.37,2013-05-25 09:41:00,
2013-05-25 05:46:00,46.5,39.7,30.21,SW,219,0.0,0.0,77,0.00,CLR,,0.00,WeatherDisplay:10.37,2013-05-25 09:46:00,
2013-05-25 05:51:00,46.5,39.7,30.21,SW,219,0.0,0.0,77,0.00,CLR,,0.00,WeatherDisplay:10.37,2013-05-25 09:51:00,
2013-05-25 05:56:00,45.5,40.0,30.22,SSW,210,0.0,0.0,81,0.00,CLR,,0.00,WeatherDisplay:10.37,2013-05-25 09:56:00,
2013-05-25 06:01:00,45.5,40.0,30.23,SSW,210,2.3,2.3,81,0.00,CLR,,0.00,WeatherDisplay:10.37,2013-05-25 10:01:00,
2013-05-25 06:06:00,45.5,40.0,30.23,SSW,210,2.3,2.3,81,0.00,CLR,,0.00,WeatherDisplay:10.37,2013-05-25 10:06:00,
2013-05-25 06:11:00,45.5,40.0,30.23,SSW,210,0.0,0.0,81,0.00,CLR,,0.00,WeatherDisplay:10.37,2013-05-25 10:11:00,
2013-05-25 06:16:00,45.4,39.9,30.23,SSW,210,0.0,0.0,81,0.00,CLR,,0.00,WeatherDisplay:10.37,2013-05-25 10:16:00,
2013-05-25 06:21:00,45.4,40.2,30.23,SSW,210,0.0,0.0,82,0.00,CLR,,0.00,WeatherDisplay:10.37,2013-05-25 10:21:00,
2013-05-25 06:26:00,45.2,40.3,30.23,SSW,210,0.0,0.0,83,0.00,CLR,,0.00,WeatherDisplay:10.37,2013-05-25 10:26:00,
2013-05-25 06:31:00,45.3,40.1,30.23,SSW,210,0.0,0.0,82,0.00,CLR,,0.00,WeatherDisplay:10.37,2013-05-25 10:31:00,
2013-05-25 06:36:00,45.1,39.9,30.24,SSW,210,0.0,0.0,82,0.00,CLR,,0.00,WeatherDisplay:10.37,2013-05-25 10:36:00,
2013-05-25 06:41:00,45.1,40.2,30.24,SSW,210,0.0,0.0,83,0.00,CLR,,0.00,WeatherDisplay:10.37,2013-05-25 10:41:00,
2013-05-25 06:46:00,45.2,40.3,30.24,SSW,210,0.0,0.0,83,0.00,CLR,,0.00,WeatherDisplay:10.37,2013-05-25 10:46:00,
2013-05-25 06:51:00,45.2,40.3,30.24,SSW,210,0.0,0.0,83,0.00,CLR,,0.00,WeatherDisplay:10.37,2013-05-25 10:51:00,
2013-05-25 06:56:00,45.3,39.8,30.25,SSW,210,2.3,2.3,81,0.00,CLR,,0.00,WeatherDisplay:10.37,2013-05-25 10:56:00,
2013-05-25 07:01:00,45.6,40.1,30.25,SSW,210,0.0,0.0,81,0.00,CLR,,0.00,WeatherDisplay:10.37,2013-05-25 11:01:00,
2013-05-25 07:06:00,46.0,40.5,30.25,SSW,210,0.0,0.0,81,0.00,CLR,,0.00,WeatherDisplay:10.37,2013-05-25 11:06:00,
2013-05-25 07:11:00,46.4,40.9,30.25,SSW,210,0.0,0.0,81,0.00,CLR,,0.00,WeatherDisplay:10.37,2013-05-25 11:11:00,
2013-05-25 07:16:00,46.0,40.5,30.25,SSW,210,0.0,0.0,81,0.00,CLR,,0.00,WeatherDisplay:10.37,2013-05-25 11:16:00,
2013-05-25 07:21:00,47.4,42.5,30.27,SSW,210,0.0,0.0,83,0.00,CLR,,0.00,WeatherDisplay:10.37,2013-05-25 11:21:00,
2013-05-25 07:26:00,47.9,42.7,30.27,SSW,211,4.0,4.0,82,0.00,CLR,,0.00,WeatherDisplay:10.37,2013-05-25 11:26:00,
2013-05-25 07:31:00,47.0,41.8,30.26,SSW,210,0.0,0.0,82,0.00,CLR,,0.00,WeatherDisplay:10.37,2013-05-25 11:31:00,
2013-05-25 07:36:00,47.0,41.8,30.26,SSW,210,0.0,0.0,82,0.00,CLR,,0.00,WeatherDisplay:10.37,2013-05-25 11:36:00,
2013-05-25 07:41:00,49.7,43.1,30.27,SW,234,0.0,0.0,78,0.00,CLR,,0.00,WeatherDisplay:10.37,2013-05-25 11:41:00,
2013-05-25 07:46:00,50.2,43.9,30.27,SW,234,0.0,0.0,79,0.00,CLR,,0.00,WeatherDisplay:10.37,2013-05-25 11:46:00,
2013-05-25 07:51:00,50.7,43.8,30.27,SW,233,0.0,0.0,77,0.00,CLR,,0.00,WeatherDisplay:10.37,2013-05-25 11:51:00,
2013-05-25 07:56:00,49.6,43.0,30.27,SW,234,0.0,0.0,78,0.00,CLR,,0.00,WeatherDisplay:10.37,2013-05-25 11:56:00,
2013-05-25 08:01:00,52.0,45.4,30.28,SW,232,0.0,0.0,78,0.00,CLR,,0.00,WeatherDisplay:10.37,2013-05-25 12:01:00,
2013-05-25 08:06:00,52.6,44.5,30.29,SW,232,1.2,0.0,74,0.00,CLR,,0.00,WeatherDisplay:10.37,2013-05-25 12:06:00,
2013-05-25 08:11:00,53.1,45.0,30.29,SW,221,3.5,3.5,74,0.00,CLR,,0.00,WeatherDisplay:10.37,2013-05-25 12:11:00,
2013-05-25 08:16:00,53.5,45.1,30.30,WSW,248,0.0,0.0,73,0.00,CLR,,0.00,WeatherDisplay:10.37,2013-05-25 12:16:00,
2013-05-25 08:21:00,53.9,45.1,30.30,WSW,249,5.8,5.8,72,0.00,CLR,,0.00,WeatherDisplay:10.37,2013-05-25 12:21:00,
2013-05-25 08:26:00,54.3,45.5,30.31,WSW,247,3.5,3.5,72,0.00,CLR,,0.00,WeatherDisplay:10.37,2013-05-25 12:26:00,
2013-05-25 08:31:00,54.8,45.2,30.31,WSW,249,0.0,0.0,70,0.00,CLR,,0.00,WeatherDisplay:10.37,2013-05-25 12:31:00,
2013-05-25 08:36:00,55.3,44.5,30.31,West,259,3.5,3.5,67,0.00,CLR,,0.00,WeatherDisplay:10.37,2013-05-25 12:36:00,
2013-05-25 08:41:00,55.8,44.2,30.31,West,259,1.2,1.2,65,0.00,CLR,,0.00,WeatherDisplay:10.37,2013-05-25 12:41:00,
2013-05-25 08:46:00,55.9,44.3,30.31,West,259,0.0,0.0,65,0.00,CLR,,0.00,WeatherDisplay:10.37,2013-05-25 12:46:00,
2013-05-25 08:51:00,56.8,43.9,30.31,WNW,286,0.0,0.0,62,0.00,CLR,,0.00,WeatherDisplay:10.37,2013-05-25 12:51:00,
2013-05-25 08:56:00,57.3,44.4,30.31,WNW,287,3.5,3.5,62,0.00,CLR,,0.00,WeatherDisplay:10.37,2013-05-25 12:56:00,
2013-05-25 09:01:00,57.7,43.5,30.31,West,278,3.5,3.5,59,0.00,CLR,,0.00,WeatherDisplay:10.37,2013-05-25 13:01:00,
2013-05-25 09:06:00,57.4,44.1,30.31,WNW,288,0.0,0.0,61,0.00,CLR,,0.00,WeatherDisplay:10.37,2013-05-25 13:06:00,
2013-05-25 09:11:00,58.6,43.4,30.31,WSW,252,3.5,3.5,57,0.00,CLR,,0.00,WeatherDisplay:10.37,2013-05-25 13:11:00,
2013-05-25 09:16:00,59.0,43.3,30.31,WSW,252,3.0,3.0,56,0.00,CLR,,0.00,WeatherDisplay:10.37,2013-05-25 13:16:00,
2013-05-25 09:21:00,57.4,44.1,30.31,WNW,288,0.0,0.0,61,0.00,CLR,,0.00,WeatherDisplay:10.37,2013-05-25 13:21:00,
2013-05-25 09:26:00,59.6,42.4,30.31,West,273,3.5,3.5,53,0.00,CLR,,0.00,WeatherDisplay:10.37,2013-05-25 13:26:00,
2013-05-25 09:31:00,57.4,44.1,30.31,WNW,288,0.0,0.0,61,0.00,CLR,,0.00,WeatherDisplay:10.37,2013-05-25 13:31:00,
2013-05-25 09:36:00,60.3,42.6,30.31,SW,233,3.5,3.5,52,0.00,CLR,,0.00,WeatherDisplay:10.37,2013-05-25 13:36:00,
2013-05-25 09:41:00,60.6,43.9,30.31,WSW,242,4.6,4.6,54,0.00,CLR,,0.00,WeatherDisplay:10.37,2013-05-25 13:41:00,
2013-05-25 09:46:00,57.4,44.1,30.31,WNW,288,0.0,0.0,61,0.00,CLR,,0.00,WeatherDisplay:10.37,2013-05-25 13:46:00,
2013-05-25 09:51:00,57.4,44.1,30.31,WNW,288,0.0,0.0,61,0.00,CLR,,0.00,WeatherDisplay:10.37,2013-05-25 13:51:00,
2013-05-25 09:56:00,61.9,46.0,30.30,SW,227,3.5,3.5,56,0.00,CLR,,0.00,WeatherDisplay:10.37,2013-05-25 13:56:00,
2013-05-25 10:01:00,62.3,45.4,30.30,WSW,243,3.5,3.5,54,0.00,CLR,,0.00,WeatherDisplay:10.37,2013-05-25 14:01:00,
2013-05-25 10:07:00,57.4,44.1,30.31,WNW,288,0.0,0.0,61,0.00,CLR,,0.00,WeatherDisplay:10.37,2013-05-25 14:07:00,
2013-05-25 10:12:00,62.6,44.2,30.30,WSW,242,0.0,0.5,51,0.00,CLR,,0.00,WeatherDisplay:10.37,2013-05-25 14:12:00,
2013-05-25 10:17:00,62.6,44.2,30.30,WSW,242,0.0,0.5,51,0.00,CLR,,0.00,WeatherDisplay:10.37,2013-05-25 14:17:00,
2013-05-25 10:22:00,63.5,46.1,30.29,WSW,238,3.5,3.5,53,0.00,CLR,,0.00,WeatherDisplay:10.37,2013-05-25 14:22:00,
2013-05-25 10:27:00,62.6,44.2,30.30,WSW,242,0.0,0.5,51,0.00,CLR,,0.00,WeatherDisplay:10.37,2013-05-25 14:27:00,
2013-05-25 10:32:00,62.6,44.2,30.30,WSW,242,0.0,0.5,51,0.00,CLR,,0.00,WeatherDisplay:10.37,2013-05-25 14:32:00,
2013-05-25 10:37:00,64.5,43.8,30.30,WSW,252,3.5,4.0,47,0.00,CLR,,0.00,WeatherDisplay:10.37,2013-05-25 14:37:00,
2013-05-25 10:42:00,64.4,45.9,30.29,West,262,5.8,5.8,51,0.00,CLR,,0.00,WeatherDisplay:10.37,2013-05-25 14:42:00,
2013-05-25 10:47:00,64.4,45.3,30.29,WSW,253,4.6,4.6,50,0.00,CLR,,0.00,WeatherDisplay:10.37,2013-05-25 14:47:00,
2013-05-25 10:52:00,64.4,46.4,30.30,SSW,209,3.5,3.5,52,0.00,CLR,,0.00,WeatherDisplay:10.37,2013-05-25 14:52:00,
2013-05-25 10:57:00,64.5,45.4,30.29,SSW,199,2.3,3.0,50,0.00,CLR,,0.00,WeatherDisplay:10.37,2013-05-25 14:57:00,
2013-05-25 11:02:00,64.5,45.4,30.29,SSW,199,2.3,3.0,50,0.00,CLR,,0.00,WeatherDisplay:10.37,2013-05-25 15:02:00,
2013-05-25 11:07:00,65.4,45.2,30.30,NNW,331,1.2,0.0,48,0.00,CLR,,0.00,WeatherDisplay:10.37,2013-05-25 15:07:00,
2013-05-25 11:12:00,65.8,47.2,30.30,NW,309,5.8,5.8,51,0.00,CLR,,0.00,WeatherDisplay:10.37,2013-05-25 15:12:00,
2013-05-25 11:17:00,64.5,45.4,30.29,SSW,199,2.3,3.0,50,0.00,CLR,,0.00,WeatherDisplay:10.37,2013-05-25 15:17:00,
2013-05-25 11:22:00,66.4,46.7,30.29,West,265,3.5,3.5,49,0.00,CLR,,0.00,WeatherDisplay:10.37,2013-05-25 15:22:00,
2013-05-25 11:27:00,66.8,45.9,30.30,WNW,292,6.9,6.9,47,0.00,CLR,,0.00,WeatherDisplay:10.37,2013-05-25 15:27:00,
2013-05-25 11:32:00,64.5,45.4,30.29,SSW,199,2.3,3.0,50,0.00,CLR,,0.00,WeatherDisplay:10.37,2013-05-25 15:32:00,
2013-05-25 11:37:00,67.4,42.9,30.29,West,277,3.5,3.5,41,0.00,CLR,,0.00,WeatherDisplay:10.37,2013-05-25 15:37:00,
2013-05-25 11:42:00,67.2,43.3,30.30,SSW,192,0.0,0.0,42,0.00,CLR,,0.00,WeatherDisplay:10.37,2013-05-25 15:42:00,
2013-05-25 11:47:00,67.2,43.3,30.30,SSW,192,0.0,0.0,42,0.00,CLR,,0.00,WeatherDisplay:10.37,2013-05-25 15:47:00,
2013-05-25 11:52:00,67.7,43.1,30.29,West,267,0.0,0.0,41,0.00,CLR,,0.00,WeatherDisplay:10.37,2013-05-25 15:52:00,
2013-05-25 11:57:00,67.2,43.3,30.30,SSW,192,0.0,0.0,42,0.00,CLR,,0.00,WeatherDisplay:10.37,2013-05-25 15:57:00,
2013-05-25 12:02:00,67.2,43.3,30.30,SSW,192,0.0,0.0,42,0.00,CLR,,0.00,WeatherDisplay:10.37,2013-05-25 16:02:00,
2013-05-25 12:07:00,68.2,42.9,30.28,West,267,1.2,1.2,40,0.00,CLR,,0.00,WeatherDisplay:10.37,2013-05-25 16:07:00,
2013-05-25 12:12:00,68.5,41.9,30.27,NW,313,3.5,3.5,38,0.00,CLR,,0.00,WeatherDisplay:10.37,2013-05-25 16:12:00,
2013-05-25 12:17:00,68.6,45.8,30.27,West,275,2.3,2.8,44,0.00,CLR,,0.00,WeatherDisplay:10.37,2013-05-25 16:17:00,
2013-05-25 12:22:00,68.6,45.8,30.27,West,275,1.2,2.8,44,0.00,CLR,,0.00,WeatherDisplay:10.37,2013-05-25 16:22:00,
2013-05-25 12:27:00,69.3,45.8,30.27,SW,229,11.5,11.5,43,0.00,CLR,,0.00,WeatherDisplay:10.37,2013-05-25 16:27:00,
2013-05-25 12:32:00,69.3,42.6,30.27,WSW,253,9.2,9.2,38,0.00,CLR,,0.00,WeatherDisplay:10.37,2013-05-25 16:32:00,
2013-05-25 12:37:00,69.2,46.4,30.27,West,265,4.6,5.0,44,0.00,CLR,,0.00,WeatherDisplay:10.37,2013-05-25 16:37:00,
2013-05-25 12:42:00,69.5,44.8,30.26,West,273,3.5,3.5,41,0.00,CLR,,0.00,WeatherDisplay:10.37,2013-05-25 16:42:00,
2013-05-25 12:47:00,69.5,46.0,30.27,West,259,6.9,6.9,43,0.00,CLR,,0.00,WeatherDisplay:10.37,2013-05-25 16:47:00,
2013-05-25 12:52:00,69.5,47.2,30.26,West,265,3.5,3.5,45,0.00,CLR,,0.00,WeatherDisplay:10.37,2013-05-25 16:52:00,
2013-05-25 12:57:00,69.5,47.2,30.26,West,265,3.5,3.5,45,0.00,CLR,,0.00,WeatherDisplay:10.37,2013-05-25 16:57:00,
2013-05-25 13:02:00,70.0,47.1,30.25,WSW,256,5.8,0.0,44,0.00,CLR,,0.00,WeatherDisplay:10.37,2013-05-25 17:02:00,
2013-05-25 13:07:00,70.0,47.1,30.25,WSW,256,0.0,0.0,44,0.00,CLR,,0.00,WeatherDisplay:10.37,2013-05-25 17:07:00,
2013-05-25 13:13:00,70.0,47.1,30.25,WSW,256,0.0,0.0,44,0.00,CLR,,0.00,WeatherDisplay:10.37,2013-05-25 17:13:00,
2013-05-25 13:18:00,70.0,47.1,30.25,WSW,256,0.0,0.0,44,0.00,CLR,,0.00,WeatherDisplay:10.37,2013-05-25 17:18:00,
2013-05-25 13:23:00,70.8,45.9,30.24,WNW,283,4.6,4.6,41,0.00,CLR,,0.00,WeatherDisplay:10.37,2013-05-25 17:23:00,
2013-05-25 13:32:00,70.0,47.1,30.25,WSW,256,0.0,0.0,44,0.00,CLR,,0.00,WeatherDisplay:10.37,2013-05-25 17:32:00,
2013-05-25 13:42:00,71.5,47.8,30.23,West,261,10.4,10.4,43,0.00,CLR,,0.00,WeatherDisplay:10.37,2013-05-25 17:42:00,
2013-05-25 13:47:00,70.0,47.1,30.25,WSW,256,0.0,0.0,44,0.00,CLR,,0.00,WeatherDisplay:10.37,2013-05-25 17:47:00,
2013-05-25 13:52:00,70.0,47.1,30.25,WSW,256,0.0,0.0,44,0.00,CLR,,0.00,WeatherDisplay:10.37,2013-05-25 17:52:00,
2013-05-25 13:57:00,70.0,47.1,30.25,WSW,256,0.0,0.0,44,0.00,CLR,,0.00,WeatherDisplay:10.37,2013-05-25 17:57:00,
2013-05-25 14:02:00,70.0,47.1,30.25,WSW,256,0.0,0.0,44,0.00,CLR,,0.00,WeatherDisplay:10.37,2013-05-25 18:02:00,
2013-05-25 14:07:00,72.0,48.9,30.22,NW,307,0.0,0.0,44,0.00,CLR,,0.00,WeatherDisplay:10.37,2013-05-25 18:07:00,
2013-05-25 14:12:00,72.2,47.8,30.22,SSW,212,3.5,5.3,42,0.00,CLR,,0.00,WeatherDisplay:10.37,2013-05-25 18:12:00,
2013-05-25 14:17:00,72.2,47.8,30.22,SSW,212,3.5,5.3,42,0.00,CLR,,0.00,WeatherDisplay:10.37,2013-05-25 18:17:00,
2013-05-25 14:22:00,72.2,47.8,30.22,SSW,212,3.5,5.3,42,0.00,CLR,,0.00,WeatherDisplay:10.37,2013-05-25 18:22:00,
2013-05-25 14:27:00,72.2,47.8,30.22,SSW,212,3.5,5.3,42,0.00,CLR,,0.00,WeatherDisplay:10.37,2013-05-25 18:27:00,
2013-05-25 14:32:00,72.2,47.8,30.22,SSW,212,3.5,5.3,42,0.00,CLR,,0.00,WeatherDisplay:10.37,2013-05-25 18:32:00,
2013-05-25 14:37:00,73.5,51.4,30.21,West,267,6.9,6.9,46,0.00,CLR,,0.00,WeatherDisplay:10.37,2013-05-25 18:37:00,
2013-05-25 14:42:00,73.5,51.4,30.21,West,267,6.9,6.9,46,0.00,CLR,,0.00,WeatherDisplay:10.37,2013-05-25 18:42:00,
2013-05-25 14:47:00,73.4,46.9,30.20,SE,131,0.0,0.0,39,0.00,CLR,,0.00,WeatherDisplay:10.37,2013-05-25 18:47:00,
2013-05-25 14:52:00,73.5,50.9,30.19,West,277,8.1,8.1,45,0.00,CLR,,0.00,WeatherDisplay:10.37,2013-05-25 18:52:00,
2013-05-25 14:57:00,73.6,47.8,30.19,WSW,252,10.4,10.4,40,0.00,CLR,,0.00,WeatherDisplay:10.37,2013-05-25 18:57:00,
2013-05-25 15:02:00,73.7,49.2,30.19,SSE,148,5.8,5.8,42,0.00,CLR,,0.00,WeatherDisplay:10.37,2013-05-25 19:02:00,
2013-05-25 15:07:00,74.1,49.5,30.19,West,265,3.5,3.5,42,0.00,CLR,,0.00,WeatherDisplay:10.37,2013-05-25 19:07:00,
2013-05-25 15:12:00,73.5,51.4,30.21,West,267,6.9,6.9,46,0.00,CLR,,0.00,WeatherDisplay:10.37,2013-05-25 19:12:00,
2013-05-25 15:17:00,73.5,51.4,30.21,West,267,6.9,6.9,46,0.00,CLR,,0.00,WeatherDisplay:10.37,2013-05-25 19:17:00,
2013-05-25 15:22:00,73.5,51.4,30.21,West,267,6.9,6.9,46,0.00,CLR,,0.00,WeatherDisplay:10.37,2013-05-25 19:22:00,
2013-05-25 15:27:00,73.7,47.9,30.19,West,263,3.5,3.5,40,0.00,CLR,,0.00,WeatherDisplay:10.37,2013-05-25 19:27:00,
2013-05-25 15:32:00,74.0,46.8,30.19,SW,233,12.7,12.7,38,0.00,CLR,,0.00,WeatherDisplay:10.37,2013-05-25 19:32:00,
2013-05-25 15:37:00,74.1,50.2,30.19,WSW,241,5.8,5.8,43,0.00,CLR,,0.00,WeatherDisplay:10.37,2013-05-25 19:37:00,
2013-05-25 15:42:00,74.4,48.5,30.19,WSW,241,10.4,10.4,40,0.00,CLR,,0.00,WeatherDisplay:10.37,2013-05-25 19:42:00,
2013-05-25 15:47:00,74.6,49.3,30.18,WSW,254,7.0,7.0,41,0.00,CLR,,0.00,WeatherDisplay:10.37,2013-05-25 19:47:00,
2013-05-25 15:52:00,73.7,47.9,30.19,West,263,3.5,3.5,40,0.00,CLR,,0.00,WeatherDisplay:10.37,2013-05-25 19:52:00,
2013-05-25 15:57:00,73.7,47.9,30.19,West,263,3.5,3.5,40,0.00,CLR,,0.00,WeatherDisplay:10.37,2013-05-25 19:57:00,
2013-05-25 16:02:00,73.7,47.9,30.19,West,263,3.5,3.5,40,0.00,CLR,,0.00,WeatherDisplay:10.37,2013-05-25 20:02:00,
2013-05-25 16:07:00,74.9,48.9,30.18,WSW,256,5.0,5.0,40,0.00,CLR,,0.00,WeatherDisplay:10.37,2013-05-25 20:07:00,
2013-05-25 16:12:00,73.7,47.9,30.19,West,263,3.5,3.5,40,0.00,CLR,,0.00,WeatherDisplay:10.37,2013-05-25 20:12:00,
2013-05-25 16:17:00,75.2,49.2,30.18,South,186,5.8,5.8,40,0.00,CLR,,0.00,WeatherDisplay:10.37,2013-05-25 20:17:00,
2013-05-25 16:22:00,75.3,49.3,30.18,SSW,211,9.2,9.2,40,0.00,CLR,,0.00,WeatherDisplay:10.37,2013-05-25 20:22:00,
2013-05-25 16:27:00,73.7,47.9,30.19,West,263,3.5,3.5,40,0.00,CLR,,0.00,WeatherDisplay:10.37,2013-05-25 20:27:00,
2013-05-25 16:32:00,75.3,51.3,30.18,SW,228,3.5,4.9,43,0.00,CLR,,0.00,WeatherDisplay:10.37,2013-05-25 20:32:00,
2013-05-25 16:37:00,75.3,51.3,30.18,SW,228,3.5,4.9,43,0.00,CLR,,0.00,WeatherDisplay:10.37,2013-05-25 20:37:00,
2013-05-25 16:42:00,75.3,51.3,30.18,SW,228,3.5,4.9,43,0.00,CLR,,0.00,WeatherDisplay:10.37,2013-05-25 20:42:00,
2013-05-25 16:47:00,75.3,51.3,30.18,SW,228,3.5,4.9,43,0.00,CLR,,0.00,WeatherDisplay:10.37,2013-05-25 20:47:00,
2013-05-25 16:52:00,75.3,51.3,30.18,SW,228,3.5,4.9,43,0.00,CLR,,0.00,WeatherDisplay:10.37,2013-05-25 20:52:00,
2013-05-25 16:57:00,75.2,49.9,30.17,WSW,256,6.9,6.9,41,0.00,CLR,,0.00,WeatherDisplay:10.37,2013-05-25 20:57:00,
2013-05-25 17:02:00,75.3,50.0,30.16,SW,228,6.9,6.9,41,0.00,CLR,,0.00,WeatherDisplay:10.37,2013-05-25 21:02:00,
2013-05-25 17:07:00,75.2,51.2,30.16,WNW,284,2.3,4.3,43,0.00,CLR,,0.00,WeatherDisplay:10.37,2013-05-25 21:07:00,
2013-05-25 17:12:00,75.5,50.1,30.16,WSW,249,1.2,2.9,41,0.00,CLR,,0.00,WeatherDisplay:10.37,2013-05-25 21:12:00,
2013-05-25 17:17:00,76.0,48.6,30.16,South,175,10.4,10.4,38,0.00,CLR,,0.00,WeatherDisplay:10.37,2013-05-25 21:17:00,
2013-05-25 17:22:00,75.5,50.1,30.16,WSW,249,1.2,2.9,41,0.00,CLR,,0.00,WeatherDisplay:10.37,2013-05-25 21:22:00,
2013-05-25 17:27:00,75.5,50.1,30.16,WSW,249,1.2,2.9,41,0.00,CLR,,0.00,WeatherDisplay:10.37,2013-05-25 21:27:00,
2013-05-25 17:32:00,75.5,50.1,30.16,WSW,249,1.2,2.9,41,0.00,CLR,,0.00,WeatherDisplay:10.37,2013-05-25 21:32:00,
2013-05-25 17:37:00,75.5,50.1,30.16,WSW,249,1.2,2.9,41,0.00,CLR,,0.00,WeatherDisplay:10.37,2013-05-25 21:37:00,
2013-05-25 17:42:00,76.0,49.2,30.16,SW,236,4.6,4.6,39,0.00,CLR,,0.00,WeatherDisplay:10.37,2013-05-25 21:42:00,
2013-05-25 17:47:00,75.5,50.1,30.16,WSW,249,1.2,2.9,41,0.00,CLR,,0.00,WeatherDisplay:10.37,2013-05-25 21:47:00,
2013-05-25 17:52:00,75.5,50.1,30.16,WSW,249,1.2,2.9,41,0.00,CLR,,0.00,WeatherDisplay:10.37,2013-05-25 21:52:00,
2013-05-25 17:57:00,75.9,50.5,30.16,West,271,3.5,3.5,41,0.00,CLR,,0.00,WeatherDisplay:10.37,2013-05-25 21:57:00,
2013-05-25 18:02:00,75.5,50.1,30.16,WSW,249,1.2,2.9,41,0.00,CLR,,0.00,WeatherDisplay:10.37,2013-05-25 22:02:00,
2013-05-25 18:16:00,75.8,49.8,30.15,SW,233,6.9,6.9,40,0.00,CLR,,0.00,WeatherDisplay:10.37,2013-05-25 22:16:00,
2013-05-25 18:21:00,75.7,51.6,30.16,SSW,211,5.0,5.0,43,0.00,CLR,,0.00,WeatherDisplay:10.37,2013-05-25 22:21:00,
2013-05-25 18:26:00,75.5,52.7,30.15,WSW,254,0.0,0.0,45,0.00,CLR,,0.00,WeatherDisplay:10.37,2013-05-25 22:26:00,
2013-05-25 18:31:00,75.5,50.1,30.16,WSW,249,1.2,2.9,41,0.00,CLR,,0.00,WeatherDisplay:10.37,2013-05-25 22:31:00,
2013-05-25 18:36:00,74.6,51.2,30.15,WSW,254,3.5,3.5,44,0.00,CLR,,0.00,WeatherDisplay:10.37,2013-05-25 22:36:00,
2013-05-25 18:41:00,74.2,53.8,30.15,WSW,253,0.0,0.0,49,0.00,CLR,,0.00,WeatherDisplay:10.37,2013-05-25 22:41:00,
2013-05-25 18:46:00,75.5,50.1,30.16,WSW,249,1.2,2.9,41,0.00,CLR,,0.00,WeatherDisplay:10.37,2013-05-25 22:46:00,
2013-05-25 18:51:00,73.5,52.0,30.16,South,173,0.0,0.0,47,0.00,CLR,,0.00,WeatherDisplay:10.37,2013-05-25 22:51:00,
2013-05-25 18:56:00,75.5,50.1,30.16,WSW,249,1.2,2.9,41,0.00,CLR,,0.00,WeatherDisplay:10.37,2013-05-25 22:56:00,
2013-05-25 19:01:00,73.0,51.0,30.16,WNW,288,1.2,0.0,46,0.00,CLR,,0.00,WeatherDisplay:10.37,2013-05-25 23:01:00,
2013-05-25 19:06:00,73.0,51.0,30.16,WNW,288,0.0,0.0,46,0.00,CLR,,0.00,WeatherDisplay:10.37,2013-05-25 23:06:00,
2013-05-25 19:11:00,73.3,50.7,30.16,WNW,288,3.5,3.5,45,0.00,CLR,,0.00,WeatherDisplay:10.37,2013-05-25 23:11:00,
2013-05-25 19:16:00,73.4,49.5,30.16,WNW,288,0.0,0.0,43,0.00,CLR,,0.00,WeatherDisplay:10.37,2013-05-25 23:16:00,
2013-05-25 19:21:00,73.4,53.1,30.16,WNW,287,0.0,0.0,49,0.00,CLR,,0.00,WeatherDisplay:10.37,2013-05-25 23:21:00,
2013-05-25 19:26:00,73.3,54.6,30.16,WNW,288,0.0,0.0,52,0.00,CLR,,0.00,WeatherDisplay:10.37,2013-05-25 23:26:00,
2013-05-25 19:31:00,72.7,51.9,30.16,WNW,288,0.0,0.0,48,0.00,CLR,,0.00,WeatherDisplay:10.37,2013-05-25 23:31:00,
2013-05-25 19:36:00,72.1,51.9,30.16,WNW,288,0.0,0.0,49,0.00,CLR,,0.00,WeatherDisplay:10.37,2013-05-25 23:36:00,
2013-05-25 19:41:00,71.9,50.0,30.16,South,171,0.0,0.0,46,0.00,CLR,,0.00,WeatherDisplay:10.37,2013-05-25 23:41:00,
2013-05-25 19:46:00,71.3,49.4,30.16,SSE,161,2.3,0.0,46,0.00,CLR,,0.00,WeatherDisplay:10.37,2013-05-25 23:46:00,
2013-05-25 19:51:00,71.6,47.9,30.16,SSE,161,0.0,0.0,43,0.00,CLR,,0.00,WeatherDisplay:10.37,2013-05-25 23:51:00,
2013-05-25 19:56:00,70.3,47.3,30.17,SSE,160,0.0,0.0,44,0.00,CLR,,0.00,WeatherDisplay:10.37,2013-05-25 23:56:00,
2013-05-25 20:01:00,70.1,50.6,30.17,SSE,161,0.0,0.0,50,0.00,CLR,,0.00,WeatherDisplay:10.37,2013-05-26 00:01:00,
2013-05-25 20:06:00,69.6,51.7,30.17,SSE,161,2.3,0.0,53,0.00,CLR,,0.00,WeatherDisplay:10.37,2013-05-26 00:06:00,
2013-05-25 20:11:00,69.6,51.7,30.17,SSE,161,0.0,0.0,53,0.00,CLR,,0.00,WeatherDisplay:10.37,2013-05-26 00:11:00,
2013-05-25 20:16:00,68.7,47.1,30.17,WSW,238,2.3,0.0,46,0.00,CLR,,0.00,WeatherDisplay:10.37,2013-05-26 00:16:00,
2013-05-25 20:21:00,68.3,45.5,30.17,WSW,239,0.0,0.0,44,0.00,CLR,,0.00,WeatherDisplay:10.37,2013-05-26 00:21:00,
2013-05-25 20:26:00,69.6,51.7,30.17,SSE,161,0.0,0.0,53,0.00,CLR,,0.00,WeatherDisplay:10.37,2013-05-26 00:26:00,
2013-05-25 20:31:00,69.6,51.7,30.17,SSE,161,0.0,0.0,53,0.00,CLR,,0.00,WeatherDisplay:10.37,2013-05-26 00:31:00,
2013-05-25 20:36:00,69.6,51.7,30.17,SSE,161,0.0,0.0,53,0.00,CLR,,0.00,WeatherDisplay:10.37,2013-05-26 00:36:00,
2013-05-25 20:41:00,69.6,51.7,30.17,SSE,161,0.0,0.0,53,0.00,CLR,,0.00,WeatherDisplay:10.37,2013-05-26 00:41:00,
2013-05-25 20:46:00,67.1,45.0,30.17,WSW,243,0.0,0.0,45,0.00,CLR,,0.00,WeatherDisplay:10.37,2013-05-26 00:46:00,
2013-05-25 20:51:00,66.9,44.9,30.17,WSW,242,0.0,0.0,45,0.00,CLR,,0.00,WeatherDisplay:10.37,2013-05-26 00:51:00,
2013-05-25 20:56:00,66.7,45.3,30.17,WSW,242,0.0,0.0,46,0.00,CLR,,0.00,WeatherDisplay:10.37,2013-05-26 00:56:00,
2013-05-25 21:01:00,66.5,45.1,30.17,WSW,242,0.0,0.0,46,0.00,CLR,,0.00,WeatherDisplay:10.37,2013-05-26 01:01:00,
2013-05-25 21:06:00,66.0,44.0,30.17,WSW,254,0.0,0.0,45,0.00,CLR,,0.00,WeatherDisplay:10.37,2013-05-26 01:06:00,
2013-05-25 21:11:00,65.7,43.2,30.17,WNW,287,1.2,0.0,44,0.00,CLR,,0.00,WeatherDisplay:10.37,2013-05-26 01:11:00,
2013-05-25 21:16:00,66.2,44.2,30.17,WSW,243,0.0,0.0,45,0.00,CLR,,0.00,WeatherDisplay:10.37,2013-05-26 01:16:00,
2013-05-25 21:21:00,66.2,44.2,30.17,WSW,243,0.0,0.0,45,0.00,CLR,,0.00,WeatherDisplay:10.37,2013-05-26 01:21:00,
2013-05-25 21:26:00,64.8,41.8,30.18,NW,323,0.0,0.0,43,0.00,CLR,,0.00,WeatherDisplay:10.37,2013-05-26 01:26:00,
2013-05-25 21:31:00,64.7,41.7,30.18,NW,322,0.0,0.0,43,0.00,CLR,,0.00,WeatherDisplay:10.37,2013-05-26 01:31:00,
2013-05-25 21:36:00,64.5,41.5,30.18,NW,322,0.0,0.0,43,0.00,CLR,,0.00,WeatherDisplay:10.37,2013-05-26 01:36:00,
2013-05-25 21:41:00,64.3,41.3,30.18,NW,323,0.0,0.0,43,0.00,CLR,,0.00,WeatherDisplay:10.37,2013-05-26 01:41:00,
2013-05-25 21:46:00,64.2,42.4,30.18,NW,323,0.0,0.0,45,0.00,CLR,,0.00,WeatherDisplay:10.37,2013-05-26 01:46:00,
2013-05-25 21:51:00,64.0,41.6,30.18,NW,323,0.0,0.0,44,0.00,CLR,,0.00,WeatherDisplay:10.37,2013-05-26 01:51:00,
2013-05-25 21:56:00,64.6,41.6,30.18,NW,323,0.0,0.0,43,0.00,CLR,,0.00,WeatherDisplay:10.37,2013-05-26 01:56:00,
2013-05-25 22:01:00,64.6,41.6,30.18,NW,323,0.0,0.0,43,0.00,CLR,,0.00,WeatherDisplay:10.37,2013-05-26 02:01:00,
2013-05-25 22:06:00,63.9,43.3,30.19,NW,317,2.3,2.3,47,0.00,CLR,,0.00,WeatherDisplay:10.37,2013-05-26 02:06:00,
2013-05-25 22:11:00,64.6,41.6,30.18,NW,323,0.0,0.0,43,0.00,CLR,,0.00,WeatherDisplay:10.37,2013-05-26 02:11:00,
2013-05-25 22:16:00,63.6,43.5,30.19,NW,317,1.0,0.0,48,0.00,CLR,,0.00,WeatherDisplay:10.37,2013-05-26 02:16:00,
2013-05-25 22:21:00,63.5,43.4,30.18,NW,317,2.3,2.3,48,0.00,CLR,,0.00,WeatherDisplay:10.37,2013-05-26 02:21:00,
2013-05-25 22:26:00,63.1,43.1,30.19,NW,317,0.0,0.0,48,0.00,CLR,,0.00,WeatherDisplay:10.37,2013-05-26 02:26:00,
2013-05-25 22:31:00,62.9,42.9,30.19,NW,317,0.0,0.0,48,0.00,CLR,,0.00,WeatherDisplay:10.37,2013-05-26 02:31:00,
2013-05-25 22:36:00,62.9,43.4,30.18,NW,317,0.0,0.0,49,0.00,CLR,,0.00,WeatherDisplay:10.37,2013-05-26 02:36:00,
2013-05-25 22:41:00,62.4,44.5,30.19,NW,317,0.0,0.0,52,0.00,CLR,,0.00,WeatherDisplay:10.37,2013-05-26 02:41:00,
2013-05-25 22:46:00,62.9,43.4,30.18,NW,317,0.0,0.0,49,0.00,CLR,,0.00,WeatherDisplay:10.37,2013-05-26 02:46:00,
2013-05-25 22:51:00,61.5,45.7,30.19,NW,317,0.0,0.0,56,0.00,CLR,,0.00,WeatherDisplay:10.37,2013-05-26 02:51:00,
2013-05-25 22:56:00,61.5,45.7,30.19,NW,317,0.0,0.0,56,0.00,CLR,,0.00,WeatherDisplay:10.37,2013-05-26 02:56:00,
2013-05-25 23:01:00,61.5,45.7,30.19,NW,317,0.0,0.0,56,0.00,CLR,,0.00,WeatherDisplay:10.37,2013-05-26 03:01:00,
2013-05-25 23:06:00,60.7,47.6,30.19,NW,317,0.0,0.0,62,0.00,CLR,,0.00,WeatherDisplay:10.37,2013-05-26 03:06:00,
2013-05-25 23:11:00,60.4,47.7,30.18,NW,317,0.0,0.0,63,0.00,CLR,,0.00,WeatherDisplay:10.37,2013-05-26 03:11:00,
2013-05-25 23:16:00,61.5,45.7,30.19,NW,317,0.0,0.0,56,0.00,CLR,,0.00,WeatherDisplay:10.37,2013-05-26 03:16:00,
2013-05-25 23:21:00,59.9,46.0,30.19,NW,317,0.0,0.0,60,0.00,CLR,,0.00,WeatherDisplay:10.37,2013-05-26 03:21:00,
2013-05-25 23:26:00,59.9,46.0,30.19,NW,317,0.0,0.0,60,0.00,CLR,,0.00,WeatherDisplay:10.37,2013-05-26 03:26:00,
2013-05-25 23:31:00,59.6,44.8,30.19,NW,317,0.0,0.0,58,0.00,CLR,,0.00,WeatherDisplay:10.37,2013-05-26 03:31:00,
2013-05-25 23:36:00,59.4,44.6,30.19,NW,317,0.0,0.0,58,0.00,CLR,,0.00,WeatherDisplay:10.37,2013-05-26 03:36:00,
2013-05-25 23:41:00,59.4,44.2,30.19,NW,317,0.0,0.0,57,0.00,CLR,,0.00,WeatherDisplay:10.37,2013-05-26 03:41:00,
2013-05-25 23:46:00,59.4,45.9,30.19,NW,317,0.0,0.0,61,0.00,CLR,,0.00,WeatherDisplay:10.37,2013-05-26 03:46:00,
2013-05-25 23:51:00,59.6,46.6,30.19,NW,317,0.0,0.0,62,0.00,CLR,,0.00,WeatherDisplay:10.37,2013-05-26 03:51:00,
2013-05-25 23:56:00,59.4,45.9,30.19,NW,317,0.0,0.0,61,0.00,CLR,,0.00,WeatherDisplay:10.37,2013-05-26 03:56:00,